User: anonymous   Login
Location: Saint-Usage
(47.1052°N, 5.2587°E)
Time: 18:17:08
(UTC+01:00)
Language:

DUCHIFAT 1 - Orbit

View from above orbital plane
View from above orbital plane
View from above satellite
View from above satellite

Ground track
Ground track

The orbit data is extracted from the following two-line orbital elements,

1 40021U 14033M   21336.86036356  .00001474  00000-0  15228-3 0  9997
2 40021  97.9901 278.9983 0012228 335.7464  24.3177 14.91671692405387
Epoch (UTC): 02 December 2021 20:38:55
Eccentricity: 0.0012228
inclination: 97.9901°
perigee height: 584 km
apogee height: 601 km
right ascension of ascending node: 278.9983°
argument of perigee: 335.7464°
revolutions per day: 14.91671692
mean anomaly at epoch: 24.3177°
orbit number at epoch: 40538

The dashed part of the orbit path shows where the satellite is in the earth's shadow,  

DLR